Previsão horária em Almeirim

Hoje, 22 Janeiro, Sexta-feira

Tempo Temperatura Precipitação Vento Pressão Humidade
00:00 +25°C° 0.1 mm 1 m/s 758 mmHg 95%
01:00 +24°C° 0.1 mm 1 m/s 757 mmHg 96%
02:00 +24°C° 0.1 mm 1 m/s 757 mmHg 97%
03:00 +24°C° 0.2 mm 1 m/s 757 mmHg 97%
04:00 +22°C° 0.2 mm 0 m/s 757 mmHg 97%
05:00 +22°C° 0.2 mm 0 m/s 758 mmHg 98%
06:00 +23°C° 0.1 mm 0 m/s 758 mmHg 95%
07:00 +26°C° 0.1 mm 1 m/s 759 mmHg 93%
08:00 +27°C° 0.1 mm 1 m/s 759 mmHg 90%
09:00 +28°C° 0.7 mm 1 m/s 759 mmHg 85%
10:00 +29°C° 0.7 mm 1 m/s 759 mmHg 80%
11:00 +30°C° 0.7 mm 2 m/s 759 mmHg 74%
12:00 +31°C° 0.5 mm 2 m/s 758 mmHg 70%
13:00 +32°C° 0.5 mm 2 m/s 757 mmHg 65%
14:00 +32°C° 0.5 mm 2 m/s 756 mmHg 61%
15:00 +31°C° 0.4 mm 2 m/s 756 mmHg 69%
16:00 +30°C° 0.4 mm 1 m/s 756 mmHg 78%
17:00 +28°C° 0.4 mm 1 m/s 756 mmHg 86%
18:00 +27°C° 0.1 mm 1 m/s 756 mmHg 88%
19:00 +27°C° 0.1 mm 1 m/s 757 mmHg 90%
20:00 +26°C° 0.1 mm 1 m/s 757 mmHg 91%
21:00 +26°C° 0 mm 1 m/s 758 mmHg 92%
22:00 +25°C° 0 mm 1 m/s 758 mmHg 92%
23:00 +25°C° 0 mm 1 m/s 758 mmHg 93%

Amanhã, 23 Janeiro, Sábado

Tempo Temperatura Precipitação Vento Pressão Humidade
00:00 +25°C° 0 mm 1 m/s 758 mmHg 94%
01:00 +24°C° 0 mm 1 m/s 757 mmHg 94%
02:00 +24°C° 0 mm 1 m/s 757 mmHg 94%
03:00 +24°C° 0 mm 1 m/s 757 mmHg 95%
04:00 +24°C° 0 mm 1 m/s 757 mmHg 96%
05:00 +22°C° 0 mm 0 m/s 757 mmHg 97%
06:00 +25°C° 0 mm 1 m/s 758 mmHg 91%
07:00 +27°C° 0 mm 1 m/s 758 mmHg 84%
08:00 +28°C° 0 mm 2 m/s 759 mmHg 78%
09:00 +30°C° 0 mm 2 m/s 759 mmHg 70%
10:00 +32°C° 0 mm 2 m/s 758 mmHg 61%
11:00 +35°C° 0 mm 2 m/s 758 mmHg 52%
12:00 +35°C° 0 mm 2 m/s 757 mmHg 49%
13:00 +36°C° 0 mm 2 m/s 756 mmHg 45%
14:00 +37°C° 0 mm 2 m/s 755 mmHg 41%
15:00 +36°C° 0 mm 2 m/s 755 mmHg 44%
16:00 +35°C° 0 mm 2 m/s 754 mmHg 46%
17:00 +34°C° 0 mm 1 m/s 754 mmHg 48%
18:00 +32°C° 0.1 mm 2 m/s 755 mmHg 56%
19:00 +30°C° 0.1 mm 2 m/s 755 mmHg 64%
20:00 +28°C° 0.1 mm 2 m/s 756 mmHg 72%
21:00 +27°C° 0.1 mm 2 m/s 757 mmHg 76%
22:00 +27°C° 0.1 mm 2 m/s 757 mmHg 80%
23:00 +26°C° 0.1 mm 2 m/s 757 mmHg 85%

Depois de amanhã, 24 Janeiro, Domingo

Tempo Temperatura Precipitação Vento Pressão Humidade
00:00 +26°C° 0 mm 2 m/s 757 mmHg 87%
01:00 +25°C° 0 mm 2 m/s 757 mmHg 89%
02:00 +25°C° 0 mm 1 m/s 756 mmHg 91%
03:00 +25°C° 0 mm 1 m/s 757 mmHg 93%
04:00 +24°C° 0 mm 1 m/s 757 mmHg 95%
05:00 +24°C° 0 mm 1 m/s 757 mmHg 97%
06:00 +26°C° 0 mm 1 m/s 757 mmHg 91%
07:00 +27°C° 0 mm 2 m/s 758 mmHg 85%
08:00 +28°C° 0 mm 2 m/s 758 mmHg 79%
09:00 +30°C° 0 mm 2 m/s 758 mmHg 70%
10:00 +32°C° 0 mm 2 m/s 757 mmHg 60%
11:00 +35°C° 0 mm 2 m/s 757 mmHg 51%
12:00 +35°C° 0.3 mm 2 m/s 756 mmHg 53%
13:00 +35°C° 0.3 mm 2 m/s 755 mmHg 55%
14:00 +35°C° 0.3 mm 2 m/s 754 mmHg 56%
15:00 +32°C° 0.8 mm 2 m/s 754 mmHg 66%
16:00 +30°C° 0.8 mm 2 m/s 754 mmHg 76%
17:00 +29°C° 0.8 mm 2 m/s 754 mmHg 86%
18:00 +28°C° 0.2 mm 2 m/s 755 mmHg 89%
19:00 +27°C° 0.2 mm 1 m/s 755 mmHg 91%
20:00 +26°C° 0.2 mm 1 m/s 756 mmHg 94%
21:00 +26°C° 0 mm 1 m/s 756 mmHg 95%
22:00 +25°C° 0 mm 1 m/s 756 mmHg 95%
23:00 +25°C° 0 mm 1 m/s 757 mmHg 96%

25 Janeiro, Segunda-feira

Tempo Temperatura Precipitação Vento Pressão Humidade
00:00 +25°C° 0 mm 1 m/s 756 mmHg 96%
01:00 +25°C° 0 mm 1 m/s 756 mmHg 96%
02:00 +25°C° 0 mm 1 m/s 756 mmHg 97%
03:00 +24°C° 0 mm 1 m/s 756 mmHg 97%
04:00 +24°C° 0 mm 1 m/s 756 mmHg 97%
05:00 +24°C° 0 mm 1 m/s 756 mmHg 97%
06:00 +25°C° 0 mm 1 m/s 757 mmHg 93%
07:00 +26°C° 0 mm 1 m/s 758 mmHg 90%
08:00 +27°C° 0 mm 2 m/s 758 mmHg 87%
09:00 +28°C° 0 mm 1 m/s 758 mmHg 79%
10:00 +29°C° 0 mm 1 m/s 757 mmHg 72%
11:00 +31°C° 0 mm 1 m/s 757 mmHg 64%
12:00 +32°C° 0 mm 1 m/s 756 mmHg 60%
13:00 +33°C° 0 mm 1 m/s 755 mmHg 55%
14:00 +34°C° 0 mm 1 m/s 754 mmHg 51%
15:00 +34°C° 0.1 mm 2 m/s 754 mmHg 54%
16:00 +34°C° 0.1 mm 2 m/s 754 mmHg 56%
17:00 +32°C° 0.1 mm 2 m/s 754 mmHg 59%
18:00 +30°C° 0.6 mm 2 m/s 755 mmHg 70%
19:00 +28°C° 0.6 mm 2 m/s 755 mmHg 82%
20:00 +26°C° 0.6 mm 2 m/s 756 mmHg 93%
21:00 +26°C° 0 mm 2 m/s 756 mmHg 93%
22:00 +25°C° 0 mm 2 m/s 757 mmHg 93%
23:00 +25°C° 0 mm 1 m/s 757 mmHg 94%

26 Janeiro, Terça-feira

Tempo Temperatura Precipitação Vento Pressão Humidade
00:00 +25°C° 0.1 mm 1 m/s 757 mmHg 94%
01:00 +25°C° 0.1 mm 1 m/s 756 mmHg 94%
02:00 +25°C° 0.1 mm 1 m/s 756 mmHg 95%
03:00 +25°C° 0 mm 1 m/s 756 mmHg 95%
04:00 +25°C° 0 mm 1 m/s 756 mmHg 96%
05:00 +25°C° 0 mm 1 m/s 756 mmHg 97%
06:00 +25°C° 0 mm 1 m/s 757 mmHg 94%
07:00 +26°C° 0 mm 2 m/s 758 mmHg 91%
08:00 +27°C° 0 mm 2 m/s 758 mmHg 88%
09:00 +28°C° 0 mm 2 m/s 758 mmHg 81%
10:00 +29°C° 0 mm 2 m/s 758 mmHg 74%
11:00 +30°C° 0 mm 2 m/s 758 mmHg 67%
12:00 +31°C° 0 mm 2 m/s 757 mmHg 64%
13:00 +32°C° 0 mm 2 m/s 756 mmHg 60%
14:00 +34°C° 0 mm 2 m/s 755 mmHg 56%
15:00 +32°C° 0.2 mm 2 m/s 755 mmHg 63%
16:00 +31°C° 0.2 mm 2 m/s 755 mmHg 69%
17:00 +30°C° 0.2 mm 1 m/s 755 mmHg 76%
18:00 +29°C° 0 mm 1 m/s 755 mmHg 80%
19:00 +27°C° 0 mm 1 m/s 756 mmHg 84%
20:00 +26°C° 0 mm 1 m/s 757 mmHg 88%
21:00 +26°C° 0 mm 1 m/s 757 mmHg 89%
22:00 +26°C° 0 mm 1 m/s 757 mmHg 91%
23:00 +25°C° 0 mm 1 m/s 758 mmHg 92%

27 Janeiro, Quarta-feira

Tempo Temperatura Precipitação Vento Pressão Humidade
00:00 +25°C° 0 mm 1 m/s 757 mmHg 93%
01:00 +25°C° 0 mm 1 m/s 757 mmHg 93%
02:00 +25°C° 0 mm 1 m/s 756 mmHg 94%
03:00 +25°C° 0 mm 1 m/s 756 mmHg 94%
04:00 +24°C° 0 mm 1 m/s 756 mmHg 94%
05:00 +24°C° 0 mm 1 m/s 757 mmHg 94%
06:00 +26°C° 0 mm 1 m/s 757 mmHg 88%
07:00 +27°C° 0 mm 1 m/s 758 mmHg 82%
08:00 +28°C° 0 mm 1 m/s 758 mmHg 75%
09:00 +30°C° 0.3 mm 1 m/s 758 mmHg 69%
10:00 +31°C° 0.3 mm 2 m/s 758 mmHg 63%
11:00 +34°C° 0.3 mm 2 m/s 758 mmHg 57%
12:00 +34°C° 0.7 mm 2 m/s 757 mmHg 60%
13:00 +34°C° 0.7 mm 2 m/s 756 mmHg 63%
14:00 +32°C° 0.7 mm 2 m/s 755 mmHg 65%
15:00 +31°C° 0.6 mm 2 m/s 755 mmHg 71%
16:00 +30°C° 0.6 mm 2 m/s 755 mmHg 76%
17:00 +29°C° 0.6 mm 2 m/s 755 mmHg 81%
18:00 +28°C° 0.3 mm 1 m/s 756 mmHg 84%
19:00 +27°C° 0.3 mm 1 m/s 756 mmHg 88%
20:00 +26°C° 0.3 mm 1 m/s 757 mmHg 91%
21:00 +26°C° 0.1 mm 1 m/s 757 mmHg 91%
22:00 +26°C° 0.1 mm 1 m/s 757 mmHg 91%
23:00 +26°C° 0.1 mm 1 m/s 758 mmHg 92%
Mostrar mais

Necessitamos do seu Consentimento

A Meteoprog e os seus Fornecedores de Serviços podem armazenar e aceder a dados pessoais como cookies, identificadores do dispositivo ou outras tecnologias semelhantes existentes no seu dispositivo e processar estes dados para personalizar conteúdos e anúncios, assim como funcionalidades nas redes sociais e análise de tráfego.

  • Armazenar e/ou aceder a informações no seu dispositivo

    Os cookies, identificadores do dispositivo ou outras informações podem ser armazenados ou acedidos no seu dispositivo, para os fins acima indicados.

  • Anúncios e conteúdos personalizados, medição de anúncios e conteúdos, dados sobre o público-alvo e desenvolvimento de produtos

    Os anúncios e os conteúdos podem ser personalizados com base num perfil. Podem ser adicionados dados adicionais para uma maior personalização dos anúncios e dos conteúdos. A eficácia dos anúncios e dos conteúdos pode ser medida. Podem ser obtidas informações sobre o público que visualizou os anúncios e os conteúdos. Estes dados podem ser usados para desenvolver ou melhorar sistemas, softwares ou a experiência do utilizador.

Ao clicar em "Eu concordo”, permitirá o uso de cookies, identificadores do dispositivo e web beacons mencionados ou outras tecnologias semelhantes. As configurações do navegador do seu dispositivo podem ser alteradas.

Para certos fins, podem ser invocados interesses legítimos ao invés de consentimento. Pode ler mais informação sobre este assunto na nossa Política de Privacidade e Cookies.